{"data":{"norad_id":64685,"intl_designator":"2025-139X","name":"STARLINK-34253","alt_names":[],"object_type":"PAYLOAD","status":"ACTIVE","operator":null,"country":"US","launch_date":"2025-06-28","launch_site_code":"AFETR","launch_vehicle":null,"mission":null,"orbit_class":"UNKNOWN","rcs_meters":null,"size_class":null,"mass_kg":null,"dimensions":null,"purposes":["comms"],"wikipedia_slug":null,"has_3d_model":false,"image_url":null,"decayed_at":null,"tle_current":{"epoch":"2026-05-25T02:46:40.488096Z","epoch_age_seconds":68218,"freshness":"FRESH","line1":"1 64685U 25139X   26145.11574639  .00020017  00000+0  60208-3 0  9991","line2":"2 64685  53.1563 131.4519 0001041  70.7011 289.4104 15.34395144 51991","mean_motion":15.34395144,"eccentricity":0.0001041,"inclination_deg":53.1563,"raan_deg":131.4519,"arg_perigee_deg":70.7011,"mean_anomaly_deg":289.4104,"bstar":0.00060208,"rev_number":5199,"period_min":93.848055087432,"perigee_km":462.00554032903,"apogee_km":463.42980627202,"semimajor_km":6840.8546733005,"source":"CELESTRAK","updated_at":"2026-05-25T13:38:20.507894Z"}}}